Regional Weather Roundup
Issued by NWS

Home | Current Version | Previous Version | Text Only | Print | Product List | Glossary Off
Versions: 1 2 3 4 5 6 7 8 9 10 11 12 13 14 15 16 17 18 19 20 21 22 23 24 25 26 27 28 29 30 31 32 33 34 35 36 37 38 39 40 41 42 43 44 45 46 47 48 49 50

490
ASUS43 KDTX 271801
RWRMI
MICHIGAN HOURLY REGIONAL WEATHER ROUNDUP
NATIONAL WEATHER SERVICE DETROIT/PONTIAC MI
200 PM EDT WED JUL 27 2016

NOTE: "FAIR" INDICATES FEW OR NO CLOUDS BELOW 12,000 FEET WITH NO
SIGNIFICANT WEATHER AND/OR OBSTRUCTION TO VISIBILITY.

MIZ047>049-052>055-059>063-066>070-074>076-081>083-271900-
SOUTHEAST LOWER MICHIGAN

CITY           SKY/WX    TMP DP  RH WIND       PRES   REMARKS
ADRIAN         MOSUNNY   86  62  44 SW9       30.01F
6HR MIN TEMP:  68; 6HR MAX TEMP:  87;

ALMA           PTSUNNY   87  70  55 SW12      29.98S HX  92
ANN ARBOR      MOSUNNY   88  61  40 W7        29.99F
BAD AXE        MOSUNNY   87  63  45 W7        29.97S
CARO           SUNNY     89  67  47 W9        29.97S HX  92
DETROIT CITY   MOSUNNY   87  60  40 MISG      29.98F
6HR MIN TEMP:  73; 6HR MAX TEMP:  87;

DETROIT        MOSUNNY   88  61  40 VRB6      29.99F
6HR MIN TEMP:  73; 6HR MAX TEMP:  89;

FLINT          MOSUNNY   91  61  36 SW9       29.99S HX  91
6HR MIN TEMP:  71; 6HR MAX TEMP:  92;

GROSSE ILE     SUNNY     84  68  58 S10       29.98F
6HR MIN TEMP:  73; 6HR MAX TEMP:  84;

HILLSDALE      SUNNY     82  60  47 CALM      30.02F
6HR MIN TEMP:  59; 6HR MAX TEMP:  84;

HOWELL         MOSUNNY   86  61  43 SW8       30.00S
6HR MIN TEMP:  68; 6HR MAX TEMP:  87;


CITY           SKY/WX    TMP DP  RH WIND       PRES   REMARKS
JACKSON        MOSUNNY   85  61  44 SW8       30.01F
6HR MIN TEMP:  68; 6HR MAX TEMP:  85;

LAMBERTVILLE   MOSUNNY   87  60  40 SW6       30.01S
6HR MIN TEMP:  71; 6HR MAX TEMP:  88;

LANSING        SUNNY     86  63  45 W7        30.00F
6HR MIN TEMP:  70; 6HR MAX TEMP:  86;

LAPEER         FAIR      88  59  37 SW8       29.99S
6HR MIN TEMP:  69; 6HR MAX TEMP:  88;

MASON          MOSUNNY   85  64  49 SW3       30.01S
MONROE         SUNNY     86  67  53 W8        29.99F
6HR MIN TEMP:  70; 6HR MAX TEMP:  86;

MT. CLEMENS    MOSUNNY   88  64  45 S8        29.96F
6HR MIN TEMP:  74; 6HR MAX TEMP:  88;

PONTIAC        PTSUNNY   86  62  44 VRB6      29.99F
6HR MIN TEMP:  71; 6HR MAX TEMP:  87;

PORT HOPE        N/A     80  70  71 NW9       29.96R
6HR MIN TEMP:  71; 6HR MAX TEMP:  82;

PORT HURON     SUNNY     84  63  48 W5        29.97F
TRI CITIES     MOSUNNY   87  70  56 SW12      29.97F HX  92
6HR MIN TEMP:  68; 6HR MAX TEMP:  88;

MIDLAND        FAIR      87  68  53 CALM      29.95F HX  91
6HR MIN TEMP:  68; 6HR MAX TEMP:  88;

TROY           MOSUNNY   89  55  31 SW7       30.00F
SAGINAW HB     MOSUNNY   88  64  45 SW9       29.96F
$$
MIZ043>046-050>051-056>058-064>065-071>073-077>080-271900-
SOUTHWEST LOWER MICHIGAN

CITY           SKY/WX    TMP DP  RH WIND       PRES   REMARKS
BATTLE CREEK   SUNNY     82  62  50 SW7       30.03S
6HR MIN TEMP:  66; 6HR MAX TEMP:  82;

BENTON HARBOR  SUNNY     84  64  50 NW9       30.02S
6HR MIN TEMP:  68; 6HR MAX TEMP:  85;

BIG RAPIDS     CLOUDY    86  72  62 SW12      29.97F HX  92
6HR MIN TEMP:  69; 6HR MAX TEMP:  86;

COLDWATER      SUNNY     84  60  42 CALM      30.01F
6HR MIN TEMP:  68; 6HR MAX TEMP:  85;

FREMONT        PTSUNNY   86  70  57 SW8       29.99S HX  90
HOLLAND        SUNNY     84  69  60 W9        30.02F
6HR MIN TEMP:  67; 6HR MAX TEMP:  84;

GRAND RAPIDS   PTSUNNY   86  67  52 SW9       30.00F
6HR MIN TEMP:  69; 6HR MAX TEMP:  86;

IONIA          FAIR      85  63  46 SW9       29.99F
6HR MIN TEMP:  68; 6HR MAX TEMP:  86;

KALAMAZOO      SUNNY     85  61  44 S8        30.01F
6HR MIN TEMP:  68; 6HR MAX TEMP:  85;

LUDINGTON      SUNNY     80  70  72 NW8       29.99F
6HR MIN TEMP:  74; 6HR MAX TEMP:  80;

MARSHALL       SUNNY     86  64  47 SW7       30.01F
6HR MIN TEMP:  68; 6HR MAX TEMP:  86;

MOUNT PLEASANT MOSUNNY   88  68  51 W7        29.96F HX  92
6HR MIN TEMP:  72; 6HR MAX TEMP:  89;

MUSKEGON       PTSUNNY   83  69  62 SW10      30.01R
6HR MIN TEMP:  73; 6HR MAX TEMP:  84;

SOUTH HAVEN    SUNNY     83  68  61 NW6       30.02S
$$
MIZ016>042-271900-
NORTHERN LOWER MICHIGAN

CITY           SKY/WX    TMP DP  RH WIND       PRES   REMARKS
ALPENA         MOSUNNY   88  58  36 MISG      29.95F
6HR MIN TEMP:  71; 6HR MAX TEMP:  89;

BEAVER ISLAND  CLOUDY    75  67  76 W5        30.00S
6HR MIN TEMP:  70; 6HR MAX TEMP:  79;

BELLAIRE       SUNNY     84  66  54 W7        29.98R
6HR MIN TEMP:  71; 6HR MAX TEMP:  84;

CADILLAC       CLOUDY    84  66  55 W10       29.98F
FRANKFORT      MOSUNNY   81  68  63 NW12      30.00S
GAYLORD        CLOUDY    78  61  55 W6        30.00F
6HR MIN TEMP:  71; 6HR MAX TEMP:  85; 6HR PCP:  0.01;

GRAYLING       PTSUNNY   89  58  34 N8        29.99S
HARBOR SPRINGS MOSUNNY   80  68  67 W7        29.97F
HOUGHTON LAKE  CLOUDY    84  65  52 VRB5      29.98F
6HR MIN TEMP:  71; 6HR MAX TEMP:  86;

MANISTEE       MOSUNNY   81  69  67 NW10      29.99S
OSCODA         CLOUDY    85  64  49 SE3       29.95S
6HR MIN TEMP:  70; 6HR MAX TEMP:  86;

PELLSTON       PTSUNNY   82  63  52 NW12      29.99R
6HR MIN TEMP:  69; 6HR MAX TEMP:  83;

ROGERS CITY    SUNNY     75  66  75 N8        29.98S
TRAVERSE CITY  CLOUDY    73  69  87 S8        29.97R THUNDER
6HR MIN TEMP:  73; 6HR MAX TEMP:  86; 6HR PCP:  0.07;

$$
MIZ007>008-015-271900-
EASTERN UPPER MICHIGAN

CITY           SKY/WX    TMP DP  RH WIND       PRES   REMARKS
KINROSS        MOSUNNY   78  62  57 NW9       29.98F
6HR MIN TEMP:  66; 6HR MAX TEMP:  78;

MACKINAC ISLAN CLOUDY    75  65  71 SW5       29.98S
6HR MIN TEMP:  68; 6HR MAX TEMP:  75;

S. S. MARIE    PTSUNNY   78  64  61 W8        29.97S
6HR MIN TEMP:  67; 6HR MAX TEMP:  79;

$$
MIZ004>006-011>014-085-271900-
CENTRAL UPPER MICHIGAN

CITY           SKY/WX    TMP DP  RH WIND       PRES   REMARKS
ESCANABA       CLOUDY    73  66  78 CALM      29.98F
6HR MIN TEMP:  66; 6HR MAX TEMP:  75;

MENOMINEE      CLOUDY   N/A N/A N/A NW3       30.00F
SAWYER-GWINN   PTSUNNY   73  63  68 E6        30.04R
$$
MIZ001>003-009>011-084-271900-
WESTERN UPPER MICHIGAN

CITY           SKY/WX    TMP DP  RH WIND       PRES   REMARKS
IRON MOUNTAIN  LGT RAIN  73  65  75 N8        30.01F
6HR MIN TEMP:  65; 6HR MAX TEMP:  73; 6HR PCP:  0.02;

HOUGHTON       CLOUDY    68  58  70 E8        30.03F
6HR MIN TEMP:  65; 6HR MAX TEMP:  69;

COPPER HARBOR    N/A     65  56  72 E6        30.04S
6HR MIN TEMP:  62; 6HR MAX TEMP:  66;

IRONWOOD       PTSUNNY   72  64  78 E3        30.00S
6HR MIN TEMP:  66; 6HR MAX TEMP:  72;

$$

ABBREVIATIONS USED IN REMARKS
   TC - TEMPERATURE IN CELSIUS
  WCI - WIND CHILL INDEX
   HX - HEAT INDEX
  VSB - VISIBILITY





USA.gov is the U.S. government's official web portal to all federal, state and local government web resources and services.